This is the latest recevied weather packets stored in our database for station/object W5LND-10. If no packets are shown the sender has not sent any weather packets the latest 10 day(s).
| Time | Temp. | Humidity | Pressure | Rain* | Wind** | Luminosity | Snow |
|---|---|---|---|---|---|---|---|
| 1777389690 | 28.33° C | 44% | 1006.6 hPa | 0 mm | - | 770 W/m² | - |
| 1777389390 | 28.33° C | 49% | 1006.6 hPa | 0 mm | - | 752 W/m² | - |
| 1777389090 | 28.33° C | 51% | 1006.5 hPa | 0 mm | - | 729 W/m² | - |
| 1777388790 | 28.33° C | 52% | 1006.6 hPa | 0 mm | - | 703 W/m² | - |
| 1777388490 | 28.33° C | 59% | 1006.4 hPa | 0 mm | - | 687 W/m² | - |
| 1777388190 | 27.78° C | 60% | 1006.3 hPa | 0 mm | - | 673 W/m² | - |
| 1777387890 | 27.78° C | 62% | 1006.4 hPa | 0 mm | - | 661 W/m² | - |
| 1777387590 | 27.22° C | 64% | 1006.4 hPa | 0 mm | - | 628 W/m² | - |
| 1777387290 | 26.67° C | 67% | 1006.4 hPa | 0 mm | - | 606 W/m² | - |
| 1777386990 | 26.67° C | 71% | 1006.3 hPa | 0 mm | - | 587 W/m² | - |
| 1777386690 | 26.11° C | 72% | 1006.1 hPa | 0 mm | - | 571 W/m² | - |
| 1777386390 | 26.11° C | 73% | 1006.2 hPa | 0 mm | - | 557 W/m² | - |
| 1777386090 | 25.56° C | 74% | 1006.2 hPa | 0 mm | - | 541 W/m² | - |
| 1777385790 | 25.56° C | 75% | 1006.2 hPa | 0 mm | - | 461 W/m² | - |
| 1777385490 | 25.56° C | 76% | 1006.1 hPa | 0 mm | - | 454 W/m² | - |
| 1777385190 | 25.56° C | 77% | 1006.2 hPa | 0 mm | - | 476 W/m² | - |
| 1777384890 | 25° C | 77% | 1006 hPa | 0 mm | - | 450 W/m² | - |
| 1777384590 | 25° C | 78% | 1006 hPa | 0 mm | - | 434 W/m² | - |
| 1777384290 | 25° C | 78% | 1005.8 hPa | 0 mm | - | 408 W/m² | - |
| 1777383990 | 25° C | 79% | 1005.7 hPa | 0 mm | - | 388 W/m² | - |
| 1777383690 | 24.44° C | 79% | 1005.8 hPa | 0 mm | - | 366 W/m² | - |
| 1777383390 | 24.44° C | 80% | 1005.6 hPa | 0 mm | - | 343 W/m² | - |
| 1777383090 | 24.44° C | 80% | 1005.6 hPa | 0 mm | - | 316 W/m² | - |
| 1777382790 | 24.44° C | 80% | 1005.5 hPa | 0 mm | - | 295 W/m² | - |
| 1777382490 | 24.44° C | 80% | 1005.5 hPa | 0 mm | - | 269 W/m² | - |
* Rain latest hour (hover to see other rain measurements)
** Current wind speed in m/s (hover to see current wind gust speed)